Weather History for Perryton, TX

Change the Weather History Date:

Wednesday, May 14, 2014

  Actual Average Record
Temperature  
Mean Temperature 52 °F -  
Max Temperature 69 °F 78 °F 97 °F (1974)
Min Temperature 35 °F 46 °F 32 °F (1971)
Degree Days  
Heating Degree Days 14    
Growing Degree Days 2 (Base 50)    
Moisture  
Dew Point 23 °F    
Average Humidity 36    
Maximum Humidity 62    
Minimum Humidity 15    
Precipitation  
Precipitation 0.00 in - - ()
Sea Level Pressure  
Sea Level Pressure 30.31 in    
Wind  
Wind Speed 10 mph (NW)    
Max Wind Speed 20 mph    
Max Gust Speed 26 mph    
Visibility 10 miles    
Events      
Averages and records for this station are not official NWS values.
T = Trace of Precipitation, MM = Missing Value Source: NWS Daily Summary

Daily Weather History Graph

Daily Weather History Graph

Search for Another Location

Airport:

Trip Planner

Search our weather history database for the weather conditions in past years. The results will help you decide how hot, cold, wet, or windy it might be!

Date:

Astronomy

May. 14, 2014 Rise Set
Actual Time 6:37 AM CDT 8:42 PM CDT
Civil Twilight 6:08 AM CDT 9:10 PM CDT
Nautical Twilight 5:33 AM CDT 9:45 PM CDT
Astronomical Twilight 4:55 AM CDT 10:23 PM CDT
Moon 8:50 PM CDT (5/14) 6:35 AM CDT (5/14)
Length of Visible Light 15h 02m
Length of Day
14h 05m
Full, 100% of the Moon is Illuminated
May 14
Full
May 14
Full
May 21
Last Quarter
May 28
New
Jun 5
First Quarter

Hourly Weather History & Observations

Time (CDT) Temp. Windchill Dew Point Humidity Pressure Visibility Wind Dir Wind Speed Gust Speed Precip Events Conditions
12:15 AM 39.7 °F 33.7 °F 18.7 °F 43% 30.37 in 10.0 mi NW 9.2 mph - N/A   Clear
12:35 AM 40.3 °F 34.9 °F 19.4 °F 43% 30.37 in 10.0 mi WNW 8.1 mph - N/A   Clear
1:15 AM 40.3 °F 34.9 °F 19.6 °F 44% 30.37 in 10.0 mi WNW 8.1 mph - N/A   Clear
1:35 AM 39.9 °F 33.9 °F 19.8 °F 44% 30.37 in 10.0 mi WNW 9.2 mph - N/A   Clear
1:55 AM 39.4 °F 33.8 °F 19.9 °F 46% 30.37 in 10.0 mi WNW 8.1 mph - N/A   Clear
2:15 AM 38.5 °F 32.7 °F 20.1 °F 48% 30.36 in 10.0 mi WNW 8.1 mph - N/A   Clear
2:35 AM 38.1 °F 32.3 °F 20.8 °F 50% 30.36 in 10.0 mi WNW 8.1 mph - N/A   Clear
2:55 AM 38.3 °F 32.5 °F 20.8 °F 50% 30.36 in 10.0 mi WNW 8.1 mph - N/A   Clear
3:15 AM 37.9 °F 32.1 °F 21.2 °F 51% 30.36 in 10.0 mi WNW 8.1 mph - N/A   Clear
3:35 AM 36.9 °F 31.4 °F 20.8 °F 52% 30.35 in 10.0 mi NW 6.9 mph - N/A   Clear
3:55 AM 35.8 °F 30.1 °F 20.8 °F 55% 30.35 in 10.0 mi WNW 6.9 mph - N/A   Clear
4:15 AM 35.1 °F 28.6 °F 21.2 °F 57% 30.36 in 10.0 mi WNW 8.1 mph - N/A   Clear
4:35 AM 35.8 °F 29.4 °F 21.7 °F 57% 30.35 in 10.0 mi WNW 8.1 mph - N/A   Clear
4:55 AM 36.5 °F 30.3 °F 22.5 °F 57% 30.35 in 10.0 mi WNW 8.1 mph - N/A   Clear
5:15 AM 36.0 °F 30.3 °F 22.6 °F 58% 30.35 in 10.0 mi WNW 6.9 mph - N/A   Clear
5:35 AM 36.5 °F 29.2 °F 23.0 °F 58% 30.35 in 10.0 mi WNW 10.4 mph - N/A   Clear
6:15 AM 35.8 °F 28.8 °F 23.5 °F 61% 30.35 in 10.0 mi WNW 9.2 mph - N/A   Clear
6:35 AM 36.0 °F 29.6 °F 23.5 °F 61% 30.36 in 10.0 mi NW 8.1 mph - N/A   Clear
6:55 AM 35.8 °F 29.4 °F 23.7 °F 62% 30.36 in 10.0 mi WNW 8.1 mph - N/A   Clear
7:15 AM 36.7 °F 30.5 °F 23.9 °F 60% 30.36 in 10.0 mi WNW 8.1 mph - N/A   Clear
7:35 AM 38.7 °F 33.6 °F 25.0 °F 58% 30.36 in 10.0 mi WNW 6.9 mph - N/A   Clear
7:55 AM 41.4 °F 36.2 °F 26.4 °F 55% 30.37 in 10.0 mi WNW 8.1 mph - N/A   Clear
8:15 AM 44.8 °F 39.4 °F 28.0 °F 52% 30.37 in 10.0 mi NW 10.4 mph - N/A   Clear
8:35 AM 47.1 °F - 28.6 °F 49% 30.37 in 10.0 mi NW 11.5 mph - N/A   Clear
8:55 AM 48.6 °F - 28.8 °F 46% 30.37 in 10.0 mi NW 11.5 mph - N/A   Clear
9:15 AM 50.4 °F - 29.3 °F 44% 30.37 in 10.0 mi NNW 12.7 mph - N/A   Clear
9:35 AM 52.5 °F - 30.2 °F 42% 30.37 in 10.0 mi North 16.1 mph 19.6 mph N/A   Clear
9:55 AM 54.1 °F - 30.9 °F 41% 30.37 in 10.0 mi NNW 13.8 mph - N/A   Clear
10:35 AM 57.6 °F - 31.6 °F 37% 30.37 in 10.0 mi NNW 13.8 mph 19.6 mph N/A   Clear
10:55 AM 58.8 °F - 30.2 °F 34% 30.36 in 10.0 mi North 17.3 mph 21.9 mph N/A   Clear
11:15 AM 59.2 °F - 29.3 °F 32% 30.36 in 10.0 mi North 15.0 mph 23.0 mph N/A   Clear
11:55 AM 61.7 °F - 27.9 °F 28% 30.35 in 10.0 mi North 16.1 mph 23.0 mph N/A   Scattered Clouds
12:15 PM 63.1 °F - 26.1 °F 25% 30.34 in 10.0 mi North 12.7 mph 23.0 mph N/A   Scattered Clouds
12:35 PM 62.6 °F - 24.4 °F 23% 30.33 in 10.0 mi NNW 18.4 mph 26.5 mph N/A   Scattered Clouds
12:55 PM 63.7 °F - 24.1 °F 22% 30.33 in 10.0 mi NNE 11.5 mph 19.6 mph N/A   Scattered Clouds
1:15 PM 64.9 °F - 23.9 °F 21% 30.31 in 10.0 mi North 12.7 mph 21.9 mph N/A   Scattered Clouds
1:35 PM 65.7 °F - 24.4 °F 21% 30.31 in 10.0 mi North 15.0 mph 20.7 mph N/A   Scattered Clouds
1:55 PM 64.4 °F - 22.6 °F 20% 30.31 in 10.0 mi North 10.4 mph 24.2 mph N/A   Scattered Clouds
2:15 PM 64.8 °F - 22.3 °F 20% 30.30 in 10.0 mi North 9.2 mph 26.5 mph N/A   Scattered Clouds
2:35 PM 65.3 °F - 21.9 °F 19% 30.29 in 10.0 mi NNW 10.4 mph 26.5 mph N/A   Scattered Clouds
3:15 PM 66.0 °F - 20.7 °F 18% 30.28 in 10.0 mi North 19.6 mph 24.2 mph N/A   Mostly Cloudy
3:35 PM 65.1 °F - 19.8 °F 18% 30.28 in 10.0 mi North 10.4 mph - N/A   Scattered Clouds
3:55 PM 67.3 °F - 19.2 °F 16% 30.27 in 10.0 mi NW 10.4 mph 21.9 mph N/A   Scattered Clouds
4:15 PM 68.0 °F - 18.5 °F 15% 30.25 in 10.0 mi North 15.0 mph 20.7 mph N/A   Scattered Clouds
4:35 PM 67.3 °F - 18.5 °F 15% 30.24 in 10.0 mi West 10.4 mph 20.7 mph N/A   Clear
4:55 PM 67.1 °F - 18.5 °F 16% 30.24 in 10.0 mi North 11.5 mph 17.3 mph N/A   Scattered Clouds
5:15 PM 68.2 °F - 19.6 °F 16% 30.24 in 10.0 mi WNW 10.4 mph 17.3 mph N/A   Scattered Clouds
5:35 PM 65.5 °F - 18.9 °F 17% 30.23 in 10.0 mi North 11.5 mph - N/A   Mostly Cloudy
5:55 PM 64.8 °F - 19.9 °F 18% 30.22 in 10.0 mi NNE 6.9 mph 19.6 mph N/A   Mostly Cloudy
6:15 PM 66.9 °F - 21.0 °F 17% 30.22 in 10.0 mi NNW 9.2 mph - N/A   Clear
6:35 PM 67.1 °F - 20.7 °F 17% 30.21 in 10.0 mi NW 6.9 mph - N/A   Clear
6:55 PM 65.7 °F - 20.1 °F 18% 30.22 in 10.0 mi North 12.7 mph - N/A   Scattered Clouds
7:15 PM 64.8 °F - 19.8 °F 18% 30.22 in 10.0 mi North 11.5 mph - N/A   Mostly Cloudy
7:35 PM 65.5 °F - 19.0 °F 17% 30.22 in 10.0 mi NW 13.8 mph 20.7 mph N/A   Mostly Cloudy
7:55 PM 64.0 °F - 19.4 °F 18% 30.22 in 10.0 mi NW 9.2 mph - N/A   Scattered Clouds
8:15 PM 61.2 °F - 21.0 °F 21% 30.23 in 10.0 mi North 8.1 mph - N/A   Clear
8:35 PM 58.1 °F - 21.6 °F 24% 30.24 in 10.0 mi NNW 5.8 mph - N/A   Scattered Clouds
8:55 PM 59.0 °F - 21.9 °F 24% 30.24 in 10.0 mi WNW 18.4 mph 26.5 mph N/A   Mostly Cloudy
9:15 PM 57.2 °F - 21.2 °F 25% 30.24 in 10.0 mi NW 6.9 mph - N/A   Scattered Clouds
9:35 PM 53.8 °F - 22.3 °F 29% 30.25 in 10.0 mi NNW 8.1 mph - N/A   Clear
9:55 PM 52.0 °F - 22.6 °F 32% 30.25 in 10.0 mi NNW 8.1 mph - N/A   Clear
10:15 PM 49.8 °F - 21.9 °F 33% 30.25 in 10.0 mi NW 6.9 mph - N/A   Clear
10:35 PM 48.4 °F - 21.0 °F 34% 30.26 in 10.0 mi NW 5.8 mph - N/A   Clear
11:15 PM 45.0 °F 40.6 °F 20.5 °F 38% 30.27 in 10.0 mi WNW 8.1 mph - N/A   Clear
11:35 PM 43.9 °F 39.9 °F 21.0 °F 40% 30.27 in 10.0 mi NW 6.9 mph - N/A   Clear
11:55 PM 43.5 °F 38.9 °F 23.0 °F 44% 30.27 in 10.0 mi NW 8.1 mph - N/A   Clear